map of PSS home
Great Circle Mapper logo
PSS - Airport
Location
City:  Posadas, Argentina
ICAO / IATA:SARP / PSS

Details
Type:Airport (Aerodrome, Airfield)
Latitude:2723'09"S (-27.385838)
Longitude:5558'15"W (-55.970727)
Datum:WGS 1984
Elevation:430 ft (131 m)
Variation:14.15W (WMM2015 magnetic declination)
-0.17 annual change
Runways:1
Longest:7406 × 98 ft (2257 × 30 m), paved

Time
Time Zone:UTC-3
Local Time:

Weather
METAR:SARP 051000Z 14004KT CAVOK 12/09 Q1022
TAF:SARP 050500Z 0506/0606 16005KT CAVOK TX24/0518Z TN09/0509Z
BECMG 0508/0510 5000 BR NSC
BECMG 0512/0514 CAVOK

Related Locations
Nearby:
Farthest:HYN: 12264 mi / 19737 km
Huangyan [Luqiao], Zhejiang, CN

Find:

   beyond  
but within

Other Information
Maps:
NOTAMs:
Links:
Sources:

  
flag of Argentina   

Sectional Chart

Flight Planning
at skyvector.com

Satellite Image

Google Maps Satellite view

 

Copyright © 2004-2015 Karl L. Swartz. All rights reserved.
The Great Circle Mapper name and logo are trademarks of the Great Circle Mapper.
All other trademarks mentioned herein belong to their respective owners.
Please see credits for attibutions and further copyright information.

  Follow gcmap on Facebook Follow gcmap on Twitter Follow gcmap on Google+

hCard Microformat

Geo Microformat